Adana, Turkey

3:24 PM +03 on May 24, 2018 (GMT +0300)
Adana

Weather History for LTAF - November, 2013

Change the Weather History Date:

Sunday, November 17, 2013

  Actual Average Record
Temperature  
Mean Temperature 64 °F -  
Max Temperature 78 °F 64 °F 84 °F (2010)
Min Temperature 50 °F 44 °F 42 °F (2003)
Degree Days  
Heating Degree Days 1    
Growing Degree Days 14 (Base 50)    
Moisture  
Dew Point 43 °F    
Average Humidity 50    
Maximum Humidity 82    
Minimum Humidity 26    
Precipitation  
Precipitation 0.00 in 0.15 in - ()
Sea Level Pressure  
Sea Level Pressure 29.95 in    
Wind  
Wind Speed 4 mph ()    
Max Wind Speed 10 mph    
Max Gust Speed -    
Visibility 3.1 miles    
Events      
Averages and records for this station are not official NWS values.
T = Trace of Precipitation, MM = Missing Value Source: Averaged Metar Reports

Daily Weather History Graph

Daily Weather History Graph

Search for Another Location

Airport or City:

Astronomy

Nov. 17, 2013 Rise Set
Actual Time 6:19 AM EET 4:27 PM EET
Civil Twilight 5:51 AM EET 4:55 PM EET
Nautical Twilight 5:20 AM EET 5:27 PM EET
Astronomical Twilight 4:49 AM EET 5:57 PM EET
Moon 4:29 PM EET (11/17) 5:54 AM EET (11/17)
Length of Visible Light 11h 04m
Length of Day
10h 08m
Full, 100% of the Moon is Illuminated
Nov 17
Full
Nov 17
Full
Nov 25
Last Quarter
Dec 3
New
Dec 9
First Quarter

Hourly Weather History & Observations

Time (EET) Temp. Dew Point Humidity Pressure Visibility Wind Dir Wind Speed Gust Speed Precip Events Conditions
12:20 AM 57.2 °F 48.2 °F 72% 29.98 in 3.1 mi Calm Calm - N/A   Mist
12:50 AM 55.4 °F 48.2 °F 77% 29.98 in 3.1 mi Calm Calm - N/A   Mist
1:20 AM 53.6 °F 46.4 °F 77% 29.98 in 3.1 mi NE 5.8 mph - N/A   Mist
1:50 AM 57.2 °F 46.4 °F 67% 29.98 in 3.1 mi NNE 3.5 mph - N/A   Mist
2:20 AM 57.2 °F 46.4 °F 67% 29.98 in 3.1 mi North 3.5 mph - N/A   Haze
2:50 AM 57.2 °F 44.6 °F 63% 29.95 in 3.1 mi NNE 3.5 mph - N/A   Haze
3:20 AM 55.4 °F 44.6 °F 67% 29.95 in 3.1 mi Calm Calm - N/A   Haze
3:50 AM 53.6 °F 44.6 °F 72% 29.95 in 3.1 mi East 2.3 mph - N/A   Mist
4:20 AM 53.6 °F 46.4 °F 77% 29.95 in 3.1 mi Calm Calm - N/A   Mist
4:50 AM 53.6 °F 44.6 °F 72% 29.95 in 3.1 mi SSE 4.6 mph - N/A   Mist
5:20 AM 51.8 °F 44.6 °F 76% 29.95 in 3.1 mi Variable 2.3 mph - N/A   Mist
5:50 AM 50.0 °F 44.6 °F 82% 29.98 in 3.1 mi WSW 3.5 mph - N/A   Mist
6:20 AM 53.6 °F 42.8 °F 67% 29.98 in 3.1 mi West 5.8 mph - N/A   Haze
6:50 AM 53.6 °F 41.0 °F 62% 29.98 in 3.1 mi West 3.5 mph - N/A   Haze
7:20 AM 55.4 °F 42.8 °F 63% 29.98 in 3.1 mi WNW 5.8 mph - N/A   Haze
7:50 AM 57.2 °F 44.6 °F 63% 30.01 in 3.1 mi North 3.5 mph - N/A   Haze
8:20 AM 62.6 °F 42.8 °F 48% 30.01 in 3.1 mi North 3.5 mph - N/A   Haze
8:50 AM 64.4 °F 42.8 °F 45% 29.98 in - NNE 4.6 mph - N/A   Clear
9:20 AM 68.0 °F 41.0 °F 37% 29.98 in - NNE 4.6 mph - N/A   Clear
9:50 AM 69.8 °F 41.0 °F 35% 29.98 in - North 4.6 mph - N/A   Clear
10:20 AM 71.6 °F 41.0 °F 33% 29.98 in - North 5.8 mph - N/A   Clear
10:50 AM 73.4 °F 41.0 °F 31% 29.98 in - North 5.8 mph - N/A   Clear
11:20 AM 73.4 °F 42.8 °F 33% 29.95 in - North 4.6 mph - N/A   Clear
11:50 AM 75.2 °F 42.8 °F 31% 29.95 in - ENE 5.8 mph - N/A   Clear
12:20 PM 75.2 °F 42.8 °F 31% 29.92 in - NE 5.8 mph - N/A   Clear
12:50 PM 77.0 °F 42.8 °F 29% 29.92 in - East 5.8 mph - N/A   Clear
1:20 PM 77.0 °F 42.8 °F 29% 29.92 in - ENE 3.5 mph - N/A   Clear
1:50 PM 77.0 °F 41.0 °F 28% 29.89 in - NE 4.6 mph - N/A   Clear
2:20 PM 77.0 °F 41.0 °F 28% 29.89 in - North 3.5 mph - N/A   Clear
2:50 PM 78.8 °F 41.0 °F 26% 29.89 in - Variable 1.2 mph - N/A   Clear
3:20 PM 77.0 °F 42.8 °F 29% 29.89 in - Variable 1.2 mph - N/A   Clear
3:50 PM 73.4 °F 44.6 °F 36% 29.89 in - SSE 3.5 mph - N/A   Clear
4:20 PM 71.6 °F 41.0 °F 33% 29.92 in - NNW 9.2 mph - N/A   Clear
4:50 PM 69.8 °F 42.8 °F 38% 29.92 in - North 5.8 mph - N/A   Clear
5:20 PM 69.8 °F 44.6 °F 40% 29.92 in - North 9.2 mph - N/A   Clear
5:50 PM 68.0 °F 42.8 °F 40% 29.92 in - NNE 10.4 mph - N/A   Clear
6:20 PM 62.6 °F 44.6 °F 52% 29.95 in - NNE 8.1 mph - N/A   Clear
6:50 PM 62.6 °F 44.6 °F 52% 29.95 in - NNE 6.9 mph - N/A   Clear
7:20 PM 66.2 °F 42.8 °F 43% 29.95 in - NNW 6.9 mph - N/A   Clear
7:50 PM 66.2 °F 42.8 °F 43% 29.95 in - North 5.8 mph - N/A   Clear
8:20 PM 64.4 °F 42.8 °F 45% 29.95 in - NNE 5.8 mph - N/A   Clear
8:50 PM 66.2 °F 42.8 °F 43% 29.95 in - North 6.9 mph - N/A   Clear
9:20 PM 60.8 °F 42.8 °F 52% 29.95 in - NNE 6.9 mph - N/A   Clear
9:50 PM 62.6 °F 42.8 °F 48% 29.98 in - NNE 8.1 mph - N/A   Clear
10:20 PM 62.6 °F 42.8 °F 48% 29.98 in - NNE 6.9 mph - N/A   Clear
10:50 PM 60.8 °F 42.8 °F 52% 29.98 in - NNE 6.9 mph - N/A   Clear
11:20 PM 60.8 °F 42.8 °F 52% 29.98 in - NNE 6.9 mph - N/A   Clear
11:50 PM 60.8 °F 42.8 °F 52% 29.98 in - NE 5.8 mph - N/A   Clear